Regional Weather Roundup
Issued by NWS

Home | Current Version | Previous Version | Graphics & Text | Print | Product List | Glossary On
Versions: 1 2 3 4 5 6 7 8 9 10 11 12 13 14 15 16 17 18 19 20 21 22 23 24 25 26 27 28 29 30 31 32 33 34 35 36 37 38 39 40 41 42 43 44 45 46 47 48 49 50
000
ASUS43 KLMK 190110
RWRKY
KENTUCKY REGIONAL WEATHER ROUNDUP
NATIONAL WEATHER SERVICE LOUISVILLE KY
900 PM EDT THU SEP 18 2014

NOTE "FAIR" INDICATES FEW OR NO CLOUDS BELOW 12,000 FEET
WITH NO SIGNIFICANT WEATHER AND/OR OBSTRUCTIONS TO VISIBILITY.

KYZ001>023-026-027-061>063-070>075-190200-
WESTERN AND SOUTH CENTRAL KENTUCKY

CITY           SKY/WX    TMP DP  RH WIND       PRES   REMARKS
PADUCAH        PTCLDY    71  60  68 NE5       30.01R
HENDERSON      CLEAR     63  52  67 E5        30.04R
OWENSBORO      CLEAR     68  54  60 E6        30.04R
HOPKINSVILLE   PTCLDY    65  60  85 NE6       30.01R
BOWLING GREEN  CLEAR     66  55  67 NE3       30.03R
GLASGOW        CLEAR     61  55  80 CALM      30.03R
$$

KYZ024-025-028>034-038-045-046-053-190200-
NORTH CENTRAL KENTUCKY

CITY           SKY/WX    TMP DP  RH WIND       PRES   REMARKS
LOUISVILLE/SDF CLEAR     68  50  52 NE6       30.05R
LOUISVILLE/LOU CLEAR     67  50  54 NE6       30.06R
FORT KNOX      CLEAR     64  55  72 NE5       30.04R
$$

KYZ035>037-039>044-047>052-055>060-089>105-190200-
NORTHEAST KENTUCKY

CITY           SKY/WX    TMP DP  RH WIND       PRES   REMARKS
LEXINGTON      CLEAR     63  51  65 NE8       30.07R
COVINGTON      CLEAR     67  44  43 NE7       30.09R
FRANKFORT      CLEAR     60  52  74 CALM      30.06R
$$

KYZ054-064>069-076>088-106>120-190200-
SOUTHEAST KENTUCKY

CITY           SKY/WX    TMP DP  RH WIND       PRES   REMARKS
JACKSON        CLEAR     61  53  75 CALM      30.08R
LONDON         CLEAR     64  55  72 NE5       30.06R
SOMERSET       NOT AVBL
MIDDLESBORO    CLEAR     62  58  86 CALM      30.06R
MONTICELLO     CLEAR     60  57  89 CALM      30.06R
$$



USA.gov is the U.S. government's official web portal to all federal, state and local government web resources and services.